Weather observations for the past three days for
Torrance, Zamperini Field Airport
Imperial (Metric)
Date Time (pdt) Wind (mph) Vis. (mi.) Weather Sky Cond. Temperature (ºF) Relative Humidity Wind Chill (°F) Heat Index (°F) Pressure Precipitation (in)
Air Dwpt 6 hour altimeter (in) sea level (mb) 1 hr 3 hr 6 hr
Max. Min.
21 19:47 W 8 10.00 Clear SKC 69.8 62.6 78% 29.86 0.0
21 18:49 W 8 10.00 A Few Clouds FEW008 71.6 62.6 73% 29.85 0.0
21 17:49 W 13 10.00 Clear SKC 73.4 62.6 69% 29.85 0.0
21 16:48 W 15 10.00 A Few Clouds FEW070 75.2 62.6 65% 77 29.86 0.0
21 15:48 W 17 10.00 A Few Clouds FEW070 75.2 64.4 69% 77 29.87 0.0
21 14:47 W 17 10.00 A Few Clouds FEW070 77 64.4 65% 79 29.89 0.0
21 13:47 W 15 10.00 A Few Clouds FEW070 78.8 62.6 58% 80 29.89 0.0
21 12:48 Calm 10.00 A Few Clouds FEW070 78.8 62.6 58% 80 29.9 0.0
21 11:49 W 12 10.00 A Few Clouds FEW180 78.8 64.4 61% 81 29.9 0.0
21 10:47 W 5 10.00 A Few Clouds FEW180 78.8 64.4 61% 81 29.91 0.0
21 09:47 W 6 10.00 A Few Clouds FEW120 75.2 64.4 69% 77 29.92 0.0
21 08:49 Calm 10.00 A Few Clouds FEW011 73.4 62.6 69% 29.91 0.0
21 07:49 Calm 9.00 A Few Clouds FEW009 69.8 62.6 78% 29.9 0.0
20 16:48 W 16 G 22 10.00 A Few Clouds FEW008 FEW200 73.4 60.8 65% 29.88 0.0
20 15:48 W 20 G 25 10.00 A Few Clouds FEW005 73.4 62.6 69% 29.9 0.0
20 14:48 W 17 G 26 10.00 A Few Clouds FEW005 73.4 62.6 69% 29.91 0.0
20 13:52 W 17 G 22 10.00 A Few Clouds with Haze FEW007 75.2 62.6 65% 77 29.92 0.0
20 12:49 W 15 G 20 10.00 A Few Clouds FEW007 73.4 62.6 69% 29.94 0.0
20 11:47 W 12 10.00 A Few Clouds FEW007 75.2 62.6 65% 77 29.94 0.0
20 10:50 W 8 10.00 A Few Clouds FEW007 73.4 62.6 69% 29.96 0.0
20 09:49 W 9 10.00 A Few Clouds FEW005 69.8 62.6 78% 29.96 0.0
20 08:47 W 6 6.00 Fog/Mist FEW005 69.8 62.6 78% 29.96 0.0
20 07:50 Calm 6.00 Fog/Mist SCT005 66.2 60.8 83% 29.95 0.0
20 06:55 Calm 4.00 Fog/Mist SCT005 62.6 60.8 94% 29.94 0.0
19 19:48 W 13 10.00 Partly Cloudy SCT007 66.2 62.6 88% 29.92 0.0
19 18:47 W 13 10.00 Partly Cloudy SCT007 68 62.6 83% 29.92 0.0
19 17:47 W 17 G 24 10.00 A Few Clouds FEW007 69.8 62.6 78% 29.91 0.0
19 16:47 W 17 G 23 10.00 A Few Clouds FEW007 71.6 62.6 73% 29.92 0.0
19 15:48 W 12 10.00 A Few Clouds FEW008 73.4 62.6 69% 29.95 0.0
19 14:47 W 18 G 24 10.00 A Few Clouds FEW005 75.2 62.6 65% 77 29.95 0.0
19 13:48 W 14 6.00 A Few Clouds with Haze FEW005 78.8 64.4 61% 81 29.96 0.0
19 12:53 W 7 6.00 A Few Clouds with Haze FEW008 78.8 64.4 61% 81 29.98 0.0
19 11:47 W 10 5.00 A Few Clouds with Haze FEW008 78.8 64.4 61% 81 29.99 0.0
19 10:47 W 6 4.00 Clear with Haze SKC 78.8 64.4 61% 81 30 0.0
19 09:39 NW 3 4.00 Clear with Haze SKC 71.6 62.6 73% 30 0.0
19 08:59 NW 3 2.00 Fog/Mist OVC007 69.8 62.6 78% 30 0.0
19 06:52 Calm 2.50 Fog/Mist OVC007 64.4 62.6 94% 29.99 0.0
Date Time (pdt) Wind (mph) Vis. (mi.) Weather Sky Cond. Air Dwpt Max. Min. Relative Humidity Wind Chill (°F) Heat Index (°F) altimeter (in) sea level (mb) 1 hr 3 hr 6 hr
6 hour
Temperature (ºF) Pressure Precipitation (in)